Weather History for Monroe, LA

Change the Weather History Date:

Monday, October 20, 2014

  Actual Average Record
Temperature  
Mean Temperature 61 °F 65 °F  
Max Temperature 76 °F 78 °F 90 °F (1935)
Min Temperature 45 °F 52 °F 30 °F (1964)
Degree Days  
Heating Degree Days 4 3  
Month to date heating degree days 22 37  
Since 1 July heating degree days 22 43  
Cooling Degree Days 0 3  
Month to date cooling degree days 121 94  
Year to date cooling degree days 2264 2458  
Growing Degree Days 10 (Base 50)    
Moisture  
Dew Point 48 °F    
Average Humidity 67    
Maximum Humidity 93    
Minimum Humidity 41    
Precipitation  
Precipitation 0.00 in 0.17 in 1.53 in (1984)
Month to date precipitation 3.19 3.04  
Year to date precipitation 43.67 42.15  
Snow  
Snow 0.00 in - - ()
Month to date snowfall 0.0  
Since 1 July snowfall 0.0  
Since 1 September snowfall 0.0  
Snow Depth 0.00 in    
Sea Level Pressure  
Sea Level Pressure 30.08 in    
Wind  
Wind Speed 1 mph (NNW)    
Max Wind Speed 9 mph    
Max Gust Speed 12 mph    
Visibility 5 miles    
Events Fog    
T = Trace of Precipitation, MM = Missing Value Source: NWS Daily Summary

Daily Weather History Graph

Daily Weather History Graph

Search for Another Location

Airport:

Trip Planner

Search our weather history database for the weather conditions in past years. The results will help you decide how hot, cold, wet, or windy it might be!

Date:

Astronomy

Oct. 20, 2014 Rise Set
Actual Time 7:15 AM CDT 6:29 PM CDT
Civil Twilight 6:50 AM CDT 6:54 PM CDT
Nautical Twilight 6:22 AM CDT 7:23 PM CDT
Astronomical Twilight 5:53 AM CDT 7:51 PM CDT
Moon 4:14 AM CDT (10/20) 4:43 PM CDT (10/20)
Length of Visible Light 12h 03m
Length of Day
11h 13m
Waning Crescent, 10% of the Moon is Illuminated
Oct 20
Waning Crescent
Oct 23
New
Oct 30
First Quarter
Nov 6
Full
Nov 14
Last Quarter

Hourly Weather History & Observations

Time (CDT) Temp. Dew Point Humidity Pressure Visibility Wind Dir Wind Speed Gust Speed Precip Events Conditions
12:30 AM 48.2 °F 48.2 °F 100% 30.09 in 1.8 mi Calm Calm - N/A   Clear
12:38 AM 48.2 °F 46.4 °F 93% 30.09 in 2.0 mi Calm Calm - N/A   Partly Cloudy
12:46 AM 48.2 °F 46.4 °F 93% 30.09 in 5.0 mi NNE 3.5 mph - N/A   Clear
12:53 AM 48.0 °F 46.0 °F 93% 30.09 in 2.0 mi Calm Calm - N/A   Clear
1:04 AM 48.2 °F 46.4 °F 93% 30.09 in 10.0 mi Calm Calm - N/A   Clear
1:29 AM 48.2 °F 46.4 °F 93% 30.09 in 1.5 mi Calm Calm - N/A   Clear
1:42 AM 50.0 °F 48.2 °F 94% 30.08 in 4.0 mi Calm Calm - N/A   Clear
1:53 AM 50.0 °F 48.9 °F 96% 30.09 in 10.0 mi Calm Calm - N/A   Clear
2:50 AM 48.2 °F 48.2 °F 100% 30.08 in 1.8 mi Calm Calm - N/A   Clear
2:53 AM 48.0 °F 46.9 °F 96% 30.08 in 1.0 mi Calm Calm - N/A   Clear
3:00 AM 46.4 °F 46.4 °F 100% 30.08 in 0.5 mi Calm Calm - N/A Fog Fog
3:10 AM 48.2 °F 46.4 °F 93% 30.08 in 2.0 mi Calm Calm - N/A   Clear
3:20 AM 48.2 °F 46.4 °F 93% 30.08 in 1.5 mi Calm Calm - N/A   Clear
3:26 AM 48.2 °F 46.4 °F 93% 30.08 in 0.8 mi Calm Calm - N/A   Mist
3:33 AM 48.2 °F 46.4 °F 93% 30.08 in 0.5 mi Calm Calm - N/A Fog Fog
3:45 AM 46.4 °F 46.4 °F 100% 30.08 in 0.5 mi Calm Calm - N/A Fog Fog
3:53 AM 48.0 °F 46.9 °F 96% 30.07 in 0.5 mi Calm Calm - N/A Fog Fog
4:11 AM 46.4 °F 46.4 °F 100% 30.07 in 1.2 mi Calm Calm - N/A   Partly Cloudy
4:19 AM 48.2 °F 46.4 °F 93% 30.07 in 2.0 mi Calm Calm - N/A   Clear
4:28 AM 46.4 °F 46.4 °F 100% 30.07 in 0.8 mi Calm Calm - N/A   Clear
4:53 AM 46.0 °F 45.0 °F 96% 30.08 in 0.5 mi Calm Calm - N/A Fog Fog
5:14 AM 48.2 °F 46.4 °F 93% 30.09 in 2.0 mi Calm Calm - N/A   Clear
5:24 AM 48.2 °F 46.4 °F 93% 30.09 in 1.5 mi Calm Calm - N/A   Clear
5:32 AM 48.2 °F 46.4 °F 93% 30.09 in 3.0 mi Calm Calm - N/A   Clear
5:43 AM 48.2 °F 46.4 °F 93% 30.09 in 1.8 mi Calm Calm - 0.01 in   Clear
5:53 AM 46.9 °F 45.0 °F 93% 30.09 in 6.0 mi Calm Calm - 0.01 in   Clear
6:00 AM 46.4 °F 46.4 °F 100% 30.09 in 0.8 mi Calm Calm - N/A   Clear
6:15 AM 46.4 °F 46.4 °F 100% 30.09 in 1.0 mi Calm Calm - N/A   Clear
6:31 AM 46.4 °F 46.4 °F 100% 30.09 in 0.8 mi Calm Calm - N/A   Clear
6:53 AM 46.9 °F 45.0 °F 93% 30.09 in 0.8 mi Calm Calm - N/A   Clear
7:01 AM 46.4 °F 44.6 °F 93% 30.09 in 1.8 mi Calm Calm - N/A   Clear
7:06 AM 46.4 °F 46.4 °F 100% 30.09 in 1.0 mi Calm Calm - N/A   Mist
7:15 AM 46.4 °F 46.4 °F 100% 30.09 in 0.8 mi Calm Calm - N/A   Mist
7:23 AM 48.2 °F 46.4 °F 93% 30.10 in 1.2 mi Calm Calm - N/A   Partly Cloudy
7:29 AM 48.2 °F 46.4 °F 93% 30.10 in 3.0 mi Calm Calm - N/A   Partly Cloudy
7:32 AM 48.2 °F 46.4 °F 93% 30.10 in 1.8 mi Calm Calm - N/A   Clear
7:45 AM 48.2 °F 46.4 °F 93% 30.10 in 4.0 mi Calm Calm - N/A   Clear
7:53 AM 48.0 °F 46.9 °F 96% 30.10 in 10.0 mi Calm Calm - N/A   Clear
8:53 AM 55.0 °F 52.0 °F 89% 30.12 in 10.0 mi Calm Calm - N/A   Clear
9:53 AM 62.6 °F 53.6 °F 72% 30.13 in 10.0 mi Calm Calm - N/A   Clear
10:53 AM 68.0 °F 52.0 °F 56% 30.13 in 10.0 mi Calm Calm - N/A   Clear
11:53 AM 69.8 °F 48.2 °F 46% 30.11 in 10.0 mi NNW 5.8 mph - N/A   Clear
12:53 PM 70.0 °F 50.0 °F 49% 30.09 in 10.0 mi NW 4.6 mph - N/A   Clear
1:53 PM 73.0 °F 51.1 °F 46% 30.06 in 10.0 mi NW 5.8 mph - N/A   Clear
2:53 PM 75.0 °F 50.0 °F 41% 30.05 in 10.0 mi North 5.8 mph - N/A   Clear
3:53 PM 73.9 °F 51.1 °F 45% 30.04 in 10.0 mi NW 3.5 mph - N/A   Clear
4:53 PM 75.9 °F 52.0 °F 43% 30.04 in 10.0 mi North 4.6 mph - N/A   Clear
5:53 PM 73.0 °F 53.1 °F 49% 30.03 in 10.0 mi NNE 3.5 mph - N/A   Clear
6:53 PM 63.0 °F 55.9 °F 78% 30.04 in 10.0 mi Calm Calm - N/A   Clear
7:53 PM 60.1 °F 55.9 °F 86% 30.05 in 10.0 mi Calm Calm - N/A   Clear
8:53 PM 59.0 °F 55.0 °F 87% 30.05 in 10.0 mi Calm Calm - N/A   Clear
9:53 PM 57.9 °F 55.0 °F 90% 30.06 in 10.0 mi Calm Calm - N/A   Clear
10:53 PM 57.0 °F 54.0 °F 89% 30.06 in 10.0 mi Calm Calm - N/A   Clear
11:53 PM 55.9 °F 54.0 °F 93% 30.06 in 10.0 mi Calm Calm - N/A   Clear